Flag for Senegal Weather past 2 weeks in Dakar, Senegal

Now
82 °F

Broken clouds.


Feels Like: 91 °F
Forecast: 80 / 87 °F
Wind: 7 mph from Northwest

Location: Dakar / Yoff

Current Time: Aug 28, 2015 at 7:58:41 AM

Latest Report: Aug 28, 2015 at 7:30 AM


Visibility: N/A

Pressure: 29.86 "Hg

Humidity: 84%

Dew point: 77 °F

Location of DakarLocation

Historic Weather in Dakar — Graph

°F

Dakar temperature yesterday

Maximum temperature yesterday: 90 °F (at 12:00 PM)
Minimum temperature yesterday: 77 °F (at 4:00 AM)
Average temperature yesterday: 84 °F

Past Weeks' High & Low Weather Summary

 TemperatureHumidityPressure
High90 °F (Aug 27, 12:00 PM)100% (Aug 18, 7:30 AM)30.01 "Hg (Aug 18, 7:30 AM)
Low73 °F (Aug 15, 11:30 PM)62% (Aug 17, 4:00 PM)29.77 "Hg (Aug 16, 2:30 AM)
Average82 °F85%29.87 "Hg
* Reported Aug 13 7:00 AM — Aug 28 7:00 AM, Dakar, Weather by CustomWeather, © 2015

Note: Actual official high and low records may vary slightly from our data, if they occured in-between our weather recording intervals... More about our weather records

Advertising

Dakar weather history for previous 24 hours

 ConditionsComfort  
Time TempWeatherWind HumidityBarometerVisibility
7:00 AM
Fri, Aug 28
82 °FScattered clouds.7 mph84%29.83 "HgN/A
6:30 AM82 °FPassing clouds.7 mph84%29.83 "HgN/A
6:00 AM82 °FPassing clouds.8 mph84%29.83 "HgN/A
5:30 AM82 °FPassing clouds.7 mph84%29.83 "HgN/A
5:00 AM82 °FPassing clouds.5 mph89%29.83 "HgN/A
4:00 AM82 °FPassing clouds.8 mph84%29.83 "HgN/A
3:00 AM82 °FPassing clouds.6 mph84%29.83 "HgN/A
2:30 AM82 °FPassing clouds.5 mph84%29.86 "HgN/A
2:00 AM82 °FPassing clouds.6 mph84%29.86 "HgN/A
1:30 AM82 °FPassing clouds.5 mph84%29.89 "HgN/A
1:10 AM82 °FPassing clouds.5 mph84%29.89 "HgN/A
1:00 AM82 °FPassing clouds.5 mph84%29.89 "HgN/A
12:30 AM82 °FPassing clouds.6 mph84%29.89 "HgN/A
12:00 AM82 °FPassing clouds.6 mph84%29.89 "HgN/A
11:30 PM
Thu, Aug 27
82 °FPassing clouds.5 mph84%29.92 "HgN/A
11:00 PM82 °FPassing clouds.5 mph84%29.92 "HgN/A
10:00 PM84 °FPassing clouds.5 mph79%29.89 "HgN/A
9:30 PM84 °FPassing clouds.6 mph79%29.89 "HgN/A
9:00 PM84 °FPassing clouds.6 mph79%29.86 "HgN/A
8:30 PM84 °FPassing clouds.7 mph79%29.86 "HgN/A
8:00 PM84 °FPassing clouds.8 mph79%29.86 "HgN/A
7:30 PM84 °FPassing clouds.7 mph79%29.86 "HgN/A
7:00 PM86 °FPassing clouds.6 mph75%29.86 "HgN/A
6:30 PM88 °FScattered clouds.5 mph70%29.86 "HgN/A
6:00 PM88 °FScattered clouds.3 mph70%29.86 "HgN/A
5:30 PM88 °FScattered clouds.6 mph75%29.86 "HgN/A
5:00 PM90 °FScattered clouds.5 mph67%29.86 "HgN/A
4:30 PM90 °FScattered clouds.3 mph67%29.86 "HgN/A
4:00 PM90 °FScattered clouds.7 mph67%29.86 "HgN/A
3:30 PM88 °FScattered clouds.6 mph70%29.86 "HgN/A
3:00 PM88 °FScattered clouds.6 mph70%29.86 "HgN/A
2:30 PM88 °FScattered clouds.5 mph66%29.86 "HgN/A
2:00 PM88 °FScattered clouds.6 mph70%29.89 "HgN/A
1:30 PM90 °FPassing clouds.6 mph63%29.89 "HgN/A
1:00 PM90 °FPassing clouds.5 mph71%29.89 "HgN/A
12:30 PM90 °FPassing clouds.3 mph67%29.92 "HgN/A
12:00 PM90 °FPassing clouds.2 mph100%29.92 "HgN/A
11:30 AM88 °FPassing clouds.2 mph75%29.92 "HgN/A
11:00 AM88 °FPassing clouds.2 mph75%29.92 "HgN/A
10:30 AM88 °FPassing clouds.1 mph75%29.95 "HgN/A
10:00 AM86 °FScattered clouds.No wind89%29.95 "HgN/A
9:30 AM84 °FScattered clouds.No wind79%29.92 "HgN/A
9:00 AM81 °FScattered clouds.No wind89%29.92 "HgN/A
8:30 AM81 °FScattered clouds.No wind94%29.92 "HgN/A
8:00 AM79 °FScattered clouds.No wind94%29.89 "HgN/A
7:30 AM77 °FScattered clouds.No wind94%29.89 "HgN/A
7:00 AM77 °FScattered clouds.No wind94%29.89 "HgN/A
Weather by CustomWeather, © 2015

See weather overviewHow to use our weather pages